Location: Windsor
(43.2292°N, 89.3015°W)
Time: 06:35:42
(UTC+00:00)

RS-44 - Pass Details

Date: 05 July 2022
Orbit: 1175 x 1510 km, 82.5° (Epoch: 14 August)

Event Time Altitude Azimuth Distance (km) Brightness Sun altitude
Rises 02:18:48 0° 195° (SSW) 4,349 ? -6.5°
Reaches altitude 10° 02:21:31 10° 198° (SSW) 3,424 ? -6.8°
Maximum altitude 02:29:43 69° 281° (W) 1,528 ? -8.0°
Drops below altitude 10° 02:38:31 10° 5° (N) 3,649 ? -9.2°
Sets 02:41:31 0° 8° (N) 4,651 ? -9.5°
